Luxor, Egypt

4:26 PM EET on April 24, 2017 (GMT +0200)
Luxor International

Weather History for HELX - September, 2013

Change the Weather History Date:

Sunday, September 8, 2013

  Actual Average Record
Temperature  
Mean Temperature 89 °F -  
Max Temperature 104 °F 97 °F 107 °F (1998)
Min Temperature 74 °F 70 °F 71 °F (2003)
Cooling Degree Days 24    
Growing Degree Days 39 (Base 50)    
Moisture  
Dew Point 57 °F    
Average Humidity 33    
Maximum Humidity 53    
Minimum Humidity 15    
Precipitation  
Precipitation 0.00 in 0.00 in - ()
Sea Level Pressure  
Sea Level Pressure 29.79 in    
Wind  
Wind Speed 2 mph ()    
Max Wind Speed 9 mph    
Max Gust Speed -    
Visibility 6.0 miles    
Events      
Averages and records for this station are not official NWS values.
T = Trace of Precipitation, MM = Missing Value Source: Averaged Metar Reports

Daily Weather History Graph

Daily Weather History Graph

Search for Another Location

Airport or City:

Trip Planner

Search our weather history database for the weather conditions in past years. The results will help you decide how hot, cold, wet, or windy it might be!

Date:

Astronomy

Sep. 08, 2013 Rise Set
Actual Time 5:32 AM EET 6:01 PM EET
Civil Twilight 5:09 AM EET 6:24 PM EET
Nautical Twilight 4:42 AM EET 6:51 PM EET
Astronomical Twilight 4:14 AM EET 7:18 PM EET
Moon 8:05 AM EET (9/8) 7:48 PM EET (9/8)
Length of Visible Light 13h 14m
Length of Day
12h 28m
Waxing Crescent, 9% of the Moon is Illuminated
Sep 8
Waxing Crescent
Sep 12
First Quarter
Sep 19
Full
Sep 27
Last Quarter
Oct 5
New

Hourly Weather History & Observations

Time (EET) Temp. Heat Index Dew Point Humidity Pressure Visibility Wind Dir Wind Speed Gust Speed Precip Events Conditions
12:00 AM 84.2 °F 83.0 °F 55.4 °F 37% 29.80 in - SSE 2.3 mph - N/A   Clear
1:00 AM 82.4 °F 81.7 °F 55.4 °F 39% 29.83 in - Calm Calm - N/A   Clear
2:00 AM 80.6 °F 80.5 °F 55.4 °F 42% 29.83 in - Calm Calm - N/A   Clear
3:00 AM 78.8 °F - 55.4 °F 44% 29.80 in - Calm Calm - N/A   Clear
4:00 AM 78.8 °F - 55.4 °F 44% 29.80 in - Calm Calm - N/A   Clear
5:00 AM 77.0 °F - 55.4 °F 47% 29.83 in - South 2.3 mph - N/A   Clear
6:00 AM 75.2 °F - 57.2 °F 53% 29.83 in - Calm Calm - N/A   Clear
7:00 AM 78.8 °F - 57.2 °F 47% 29.83 in - Calm Calm - N/A   Clear
8:00 AM 84 °F - 59 °F 33% 29.85 in 6 mi Calm Calm - -  
8:00 AM 84.2 °F 83.8 °F 59.0 °F 42% 29.86 in - Calm Calm - N/A   Clear
9:00 AM 89.6 °F 88.9 °F 59.0 °F 36% 29.86 in - Calm Calm - N/A   Clear
10:00 AM 93.2 °F 93.3 °F 60.8 °F 34% 29.83 in - WNW 2.3 mph - N/A   Clear
11:00 AM 95.0 °F 95.2 °F 60.8 °F 32% 29.83 in - West 2.3 mph - N/A   Clear
12:00 PM 98.6 °F 98.5 °F 59.0 °F 27% 29.80 in - North 6.9 mph - N/A   Clear
1:00 PM 102.2 °F 102.4 °F 59.0 °F 24% 29.77 in - NW 6.9 mph - N/A   Clear
2:00 PM 103 °F - 58 °F 15% 29.75 in 6 mi North 4.6 mph - -  
2:00 PM 104.0 °F 104.6 °F 59.0 °F 23% 29.77 in - North 4.6 mph - N/A   Clear
3:00 PM 104.0 °F 104.6 °F 59.0 °F 23% 29.74 in - WNW 6.9 mph - N/A   Clear
4:00 PM 104.0 °F 102.9 °F 55.4 °F 20% 29.71 in - NW 6.9 mph - N/A   Clear
5:00 PM 100.4 °F 99.7 °F 57.2 °F 24% 29.71 in - WNW 9.2 mph - N/A   Clear
6:00 PM 95.0 °F 93.7 °F 57.2 °F 28% 29.74 in - West 6.9 mph - N/A   Clear
7:00 PM 91.4 °F 89.1 °F 53.6 °F 28% 29.74 in - WNW 2.3 mph - N/A   Clear
8:00 PM 90 °F - 53 °F 19% 29.75 in 6 mi NW 2.3 mph - -  
8:00 PM 89.6 °F 87.3 °F 53.6 °F 29% 29.74 in - NW 2.3 mph - N/A   Clear
9:00 PM 91.4 °F - 51.8 °F 26% 29.77 in - WSW 3.5 mph - N/A   Clear
11:00 PM 86.0 °F - 51.8 °F 31% 29.77 in - SSE 2.3 mph - N/A   Clear